This demonstration page uses our WeatherBlox Daily Observations layout. Learn more.

Left ArrowRight Arrow

Hourly Observations for July 1, 2018

Temp ( °F °C ) Dew Point ( °F °C ) Humidity (%) Winds ( mph kmh ) Pressure ( in mb ) Visibility ( mi km ) Precip ( " mm )
12:15 am 00:15 Cloudy 60 15.5 57 13.9 90 90 NNE 20 31 29.97 1015 10 16 N/A
12:35 am 00:35 Mostly Cloudy 60 15.6 56 13.5 87 87 NE 21 33 29.91 1013 10 16 N/A
12:55 am 00:55 Partly Cloudy 61 16 56 13.1 83 83 NE 21 33 29.85 1011 10 16 N/A
1:15 am 01:15 Clear 61 16 55 12.8 81 81 NE 14 22 29.85 1011 10 16 N/A
1:35 am 01:35 Clear 60 15.7 55 13 84 84 ENE 9 15 29.85 1011 10 16 N/A
1:55 am 01:55 Clear 60 15.5 55 12.8 84 84 N N/A 29.91 1013 10 16 N/A
2:15 am 02:15 Clear 59 15.1 55 12.6 85 85 W 8 13 29.91 1013 10 16 N/A
2:35 am 02:35 Clear 58 14.6 55 12.5 87 87 W 7 11 29.91 1013 10 16 N/A
2:55 am 02:55 Clear 58 14.5 55 12.5 88 88 W 7 11 29.94 1014 10 16 N/A
3:15 am 03:15 Clear 57 14 55 12.5 91 91 WNW 7 11 29.94 1014 10 16 N/A
3:35 am 03:35 Clear 58 14.3 55 12.8 91 91 WNW 7 11 29.94 1014 10 16 N/A
3:55 am 03:55 Clear 58 14.2 55 12.7 91 91 NNW 7 11 29.94 1014 10 16 N/A
4:15 am 04:15 Clear 57 14.1 55 12.5 90 90 WNW 9 15 29.94 1014 10 16 N/A
4:35 am 04:35 Clear 57 13.8 55 12.5 92 92 NW 9 15 29.94 1014 10 16 N/A
4:55 am 04:55 Clear 56 13.6 54 12.3 92 92 NW 7 11 29.94 1014 10 16 N/A
5:15 am 05:15 Clear 56 13.5 54 12.1 91 91 WNW 8 13 29.94 1014 10 16 N/A
5:35 am 05:35 Clear 56 13.2 54 12 93 93 WNW 7 11 29.94 1014 10 16 N/A
5:55 am 05:55 Clear 55 13 54 12 94 94 WNW 7 11 30.00 1016 10 16 N/A
6:15 am 06:15 Sunny 55 13 54 12 94 94 WNW 7 11 30.00 1016 10 16 N/A
6:35 am 06:35 Sunny 55 13 54 12 94 94 WNW 7 11 30.00 1016 10 16 N/A
6:55 am 06:55 Sunny 55 13 54 12 94 94 WNW 7 11 30.00 1016 10 16 N/A
7:15 am 07:15 Sunny 56 13.4 54 12.4 94 94 WNW 8 13 29.97 1015 10 16 N/A
7:35 am 07:35 Sunny 57 14.1 55 12.7 91 91 WNW 8 13 30.00 1016 10 16 N/A
7:55 am 07:55 Sunny 58 14.7 55 13 90 90 WNW 9 15 30.00 1016 10 16 N/A
8:15 am 08:15 Sunny 60 15.5 56 13.4 87 87 NW 9 15 30.00 1016 10 16 N/A
8:35 am 08:35 Sunny 61 16.2 57 13.7 85 85 WNW 9 15 29.97 1015 10 16 N/A
8:55 am 08:55 Sunny 62 16.7 57 13.9 84 84 WNW 12 19 29.94 1014 10 16 N/A
9:15 am 09:15 Sunny 63 17.2 57 14.1 82 82 WNW 10 17 29.94 1014 10 16 N/A
9:35 am 09:35 Sunny 64 17.7 58 14.2 80 80 WNW 9 15 29.94 1014 10 16 N/A
9:55 am 09:55 Sunny 65 18.4 58 14.4 78 78 WNW 8 13 29.94 1014 10 16 N/A
10:15 am 10:15 Sunny 66 19 59 14.8 77 77 NW 7 11 29.94 1014 10 16 N/A
10:35 am 10:35 Partly Cloudy 67 19.5 59 15 75 75 WNW 7 11 29.97 1015 10 16 N/A
10:55 am 10:55 Partly Cloudy 69 20.4 59 15.2 72 72 NW 6 9 29.94 1014 10 16 N/A
11:15 am 11:15 Partly Cloudy 70 20.9 60 15.7 72 72 WNW 10 17 29.94 1014 10 16 N/A
11:35 am 11:35 Sunny 70 21.3 60 15.5 70 70 WNW 10 17 29.94 1014 10 16 N/A
11:55 am 11:55 Sunny 72 22 60 15.6 67 67 NNW 6 9 29.94 1014 10 16 N/A
12:15 pm 12:15 Partly Cloudy 73 22.7 59 15.2 63 63 NW 8 13 29.91 1013 10 16 N/A
12:35 pm 12:35 Sunny 73 23 59 15.2 62 62 W 5 7 29.91 1013 10 16 N/A
12:55 pm 12:55 Sunny 74 23.5 60 15.3 60 60 NNW 3 6 29.94 1014 10 16 N/A
1:15 pm 13:15 Sunny 75 23.9 58 14.7 56 56 NW 7 11 29.91 1013 10 16 N/A
1:35 pm 13:35 Sunny 76 24.2 58 14.5 55 55 N 3 6 29.91 1013 10 16 N/A
1:55 pm 13:55 Sunny 76 24.5 56 13.5 50 50 N N/A 29.88 1012 10 16 N/A
2:15 pm 14:15 Sunny 76 24.7 57 14.1 52 52 N N/A 29.88 1012 10 16 N/A
2:35 pm 14:35 Sunny 77 25 59 14.8 53 53 W 6 9 29.88 1012 10 16 N/A
2:55 pm 14:55 Sunny 78 25.3 58 14.3 51 51 N N/A 29.88 1012 10 16 N/A
3:15 pm 15:15 Sunny 78 25.4 59 14.9 52 52 N N/A 29.88 1012 10 16 N/A
3:35 pm 15:35 Sunny 78 25.8 59 15.1 52 52 NW 3 6 29.88 1012 10 16 N/A
3:55 pm 15:55 Sunny 79 25.9 59 15.2 52 52 N N/A 29.88 1012 10 16 N/A
4:15 pm 16:15 Sunny 79 26.2 56 13.3 45 45 NW 3 6 29.88 1012 10 16 N/A
4:35 pm 16:35 Sunny 80 26.4 57 13.7 46 46 W 3 6 29.88 1012 10 16 N/A
4:55 pm 16:55 Sunny 80 26.6 55 13 43 43 N N/A 29.88 1012 10 16 N/A
5:15 pm 17:15 Sunny 80 26.5 58 14.4 47 47 N N/A 29.88 1012 10 16 N/A
5:35 pm 17:35 Sunny 81 27.2 56 13.4 43 43 SE 3 6 29.85 1011 10 16 N/A
5:55 pm 17:55 Sunny 80 26.6 56 13.3 44 44 N N/A 29.88 1012 10 16 N/A
6:15 pm 18:15 Sunny 80 26.5 56 13.4 44 44 N N/A 29.88 1012 10 16 N/A
6:35 pm 18:35 Sunny 81 27 59 14.8 47 47 SSE 5 7 29.85 1011 10 16 N/A
6:55 pm 18:55 Sunny 80 26.5 58 14.7 48 48 SSE 5 7 29.88 1012 10 16 N/A
7:15 pm 19:15 Sunny 80 26.4 60 15.6 52 52 S 6 9 29.88 1012 10 16 N/A
7:35 pm 19:35 Sunny 78 25.7 61 15.9 55 55 SSE 6 9 29.88 1012 10 16 N/A
7:55 pm 19:55 Sunny 78 25.3 61 16.2 57 57 SE 7 11 29.88 1012 10 16 N/A
8:15 pm 20:15 Sunny 77 25 60 15.8 57 57 SE 8 13 29.88 1012 10 16 N/A
8:35 pm 20:35 Sunny 76 24.3 61 16.1 60 60 SE 7 11 29.88 1012 10 16 N/A
8:55 pm 20:55 Sunny 75 23.7 61 16.2 63 63 SE 6 9 29.88 1012 10 16 N/A
9:15 pm 21:15 Clear 73 22.6 61 16.3 68 68 SE 7 11 29.91 1013 10 16 N/A
9:35 pm 21:35 Clear 72 22.4 62 16.8 71 71 SE 8 13 29.91 1013 10 16 N/A
9:55 pm 21:55 Clear 72 22 63 17.1 74 74 SE 8 13 29.91 1013 10 16 N/A
10:15 pm 22:15 Clear 71 21.6 63 17.1 76 76 SE 7 11 29.94 1014 10 16 N/A
10:35 pm 22:35 Clear 70 21.1 63 17.1 78 78 SE 8 13 29.94 1014 10 16 N/A
10:55 pm 22:55 Clear 69 20.6 63 17 80 80 SE 7 11 29.94 1014 10 16 N/A
11:15 pm 23:15 Clear 69 20.5 62 16.6 78 78 SE 6 9 29.94 1014 10 16 N/A
11:35 pm 23:35 Clear 66 19.1 62 16.5 85 85 SSE 6 9 29.97 1015 10 16 N/A
11:55 pm 23:55 Clear 66 19.1 62 16.4 84 84 SSE 7 11 29.97 1015 10 16 N/A

Powered by AerisWeather